Погода в Сатисе

Россия / Нижегородская область     55°01′19″N   43°49′05″E
темп.,
°C
ветер,
м/с
пор.,
м/с
влажн.,
%
обл.,
%
осадки,
мм/ч
давл.,
гПа
погр.,
м
6 мая, чт
чт600:00+8ююз3128285 0.0 1011499
03:00+8юз3148161 0.1 1012509
06:00+8ююз31083100 0.0 1013286
09:00+14ююз4759100 0.0 1013625
12:00+17ююз6950100 0.0 10121763
15:00+17ю695594 0.1 10121692
18:00+15ююз61159100 0.0 10111168
21:00+13ю51371100 0.0 1011731
7 мая, пт
пт700:00+11ю5147811 0.1 1011513
03:00+12ю51474100 0.1 1010548
06:00+11ю51271100 0.0 1010732
09:00+12зюз4778100 0.1 1010968
12:00+6сз5891100 0.9 1014633
15:00+10з2674100 2.0 10141094
18:00+11ю23717 0.1 1014177
21:00+6ю24872 0.1 101763
8 мая, сб
сб800:00+5ю229121 0.0 101734
03:00+4ю22897 0.0 101833
06:00+6ююв2786100 0.0 1017170
09:00+12юв575936 0.0 10161058
12:00+14юв684794 0.0 10131354
15:00+16ю61050100 0.0 10101487
18:00+15ю61261100 0.0 10081238
21:00+12ю61480100 0.3 10081117
9 мая, вс
вс900:00+11ю41093100 0.3 1008745
03:00+9зюз3995100 4.5 1009559
06:00+9зюз4894100 1.4 1011639
09:00+9з4578100 1.6 10131025
12:00+10зсз4563100 0.1 10151223
15:00+9ссз4568100 0.2 10171167
18:00+8ссз4673100 0.1 1019805
21:00+6ссз487893 0.1 1022437
10 мая, пн
пн1000:00+5ссз3779100 0.0 1023282
03:00+4ссз388796 0.0 1025275
06:00+5с39830 0.0 1028365
09:00+10с47543 0.0 10291031
12:00+13ссв45425 0.0 10291607
15:00+14ссв45415 0.0 10291741
18:00+13св24523 0.0 1030459
21:00+7ссв22680 0.0 103111